EST,Max TemperatureF,Mean TemperatureF,Min TemperatureF,Max Dew PointF,MeanDew PointF,Min DewpointF,Max Humidity, Mean Humidity, Min Humidity, Max Sea Level PressureIn, Mean Sea Level PressureIn, Min Sea Level PressureIn, Max VisibilityMiles, Mean VisibilityMiles, Min VisibilityMiles, Max Wind SpeedMPH, Mean Wind SpeedMPH, Max Gust SpeedMPH,PrecipitationIn, CloudCover, Events, WindDirDegrees
2012-11-1,52,44,37,38,31,21,93,68,31,29.84,29.79,29.76,10,9,5,17,10,25,0.00,,Rain,253
2012-11-2,50,44,39,32,28,25,74,55,41,30.07,29.93,29.81,10,10,10,16,6,22,0.00,,,305
2012-11-3,46,42,39,39,32,29,89,68,52,30.17,30.12,30.07,10,10,10,6,1,,0.00,,Rain,359
2012-11-4,47,39,31,34,30,28,96,71,49,30.14,30.11,30.09,10,10,10,8,3,,0.00,,,17
2012-11-5,47,38,28,32,28,25,96,73,43,30.18,30.14,30.09,10,10,7,7,1,,0.00,0,,49
2012-11-6,51,38,24,32,28,22,93,74,43,30.11,30.00,29.91,10,10,7,6,1,,0.00,1,,48
2012-11-7,54,42,29,32,29,25,94,67,38,30.07,29.94,29.88,10,10,7,9,2,12,0.00,1,,30
2012-11-8,50,36,22,32,27,20,93,76,45,30.23,30.16,30.07,10,10,10,7,1,,0.00,0,,292
2012-11-9,57,40,24,35,30,22,94,73,40,30.29,30.21,30.17,10,10,10,9,1,,0.00,1,,193
2012-11-10,73,54,36,38,36,32,91,53,25,30.25,30.21,30.16,10,10,10,13,3,20,0.00,0,,206
2012-11-11,70,52,33,41,34,32,92,57,25,30.35,30.24,30.17,10,10,10,10,3,16,0.00,0,,201
2012-11-12,62,47,32,56,43,29,92,72,40,30.41,30.17,30.02,10,9,4,16,5,25,0.00,4,Rain,219
2012-11-13,43,33,23,32,25,23,97,77,44,30.51,30.45,30.41,10,9,0,10,1,,0.00,1,Fog,286
2012-11-14,41,30,20,27,24,19,94,77,52,30.53,30.46,30.37,10,10,10,12,2,,0.00,0,,45
2012-11-15,49,36,22,30,26,20,94,77,43,30.36,30.32,30.29,10,10,10,4,0,,0.00,0,,330
2012-11-16,51,36,22,32,27,21,93,77,43,30.47,30.40,30.33,10,10,7,8,1,,0.00,0,,28
2012-11-17,57,40,22,32,25,20,92,70,27,30.56,30.49,30.46,10,10,7,12,1,,0.00,0,,54
2012-11-18,59,40,22,31,25,20,91,67,26,30.49,30.44,30.39,10,10,10,6,1,,0.00,0,,73
2012-11-19,54,39,24,35,29,22,91,75,43,30.40,30.31,30.19,10,10,10,4,0,,0.00,0,,275
2012-11-20,57,44,32,38,34,30,95,67,38,30.20,30.13,30.08,10,10,10,4,0,,0.00,4,,10
2012-11-21,61,46,31,37,33,30,95,71,34,30.24,30.19,30.13,10,10,10,5,0,,0.00,1,,58
2012-11-22,63,45,27,36,32,25,93,70,35,30.24,30.16,30.04,10,10,10,9,1,16,0.00,0,,186
2012-11-23,52,42,31,47,32,17,90,61,39,30.14,30.00,29.91,10,10,2,22,8,31,0.00,5,Rain,244
2012-11-24,32,31,30,22,20,18,68,63,57,30.17,30.14,30.11,10,10,10,14,8,20,0.00,8,Snow,267
2012-11-25,43,34,25,28,21,18,79,63,38,30.12,30.02,29.90,10,10,10,16,4,23,0.00,2,,211
2012-11-26,52,40,27,32,28,24,91,63,36,30.19,30.13,30.02,10,10,7,7,0,,0.00,3,,24
2012-11-27,43,38,34,32,30,25,91,78,48,30.31,30.27,30.18,10,9,7,7,4,,0.00,8,Rain,348
2012-11-28,42,32,21,29,23,19,94,74,42,30.40,30.35,30.29,10,9,7,13,3,18,0.00,1,,255
2012-11-29,47,32,18,26,21,16,91,72,37,30.43,30.35,30.27,10,10,7,10,1,,0.00,0,,184
2012-11-30,57,40,23,34,28,21,92,69,39,30.31,30.24,30.18,10,10,7,12,2,,0.00,1,,199